軌道要素
Epoch 2017 Nov. 23.0 TT = JDT 2458080.5
T 2017 Dec. 6.56799 TT MPCW
q 2.4617662 (2000.0) P Q
z +0.0008126 Peri. 132.24062 +0.53240058 +0.82456028
+/-0.0000051 Node 165.54619 -0.80185520 +0.41878812
e 0.9979997 Incl. 50.08491 +0.27125240 -0.38041669
From 49 observations 2017 Aug. 14-2018 June 17, mean residual 0".3.
|